Netzbetreibername:;Getreidem�hle Zwiefalten e.G.;;
Netz- oder Umspannebene:;Netzgebiet;;
Lastgangtyp:;Summenlast der Netzverluste;;
gesetzliche Grundlage:;� 23c Abs. 3 Nr. 3 EnWG;;
Einheit:;kW;;
Betrachtungszeitraum:;01.01.2023;31.12.2023;
;;;
Datum;von;bis;Wert
01.01.2023;00:00;00:15;32
01.01.2023;00:15;00:30;31
01.01.2023;00:30;00:45;30
01.01.2023;00:45;01:00;28
01.01.2023;01:00;01:15;30
01.01.2023;01:15;01:30;28
01.01.2023;01:30;01:45;27
01.01.2023;01:45;02:00;26
01.01.2023;02:00;02:15;24
01.01.2023;02:15;02:30;23
01.01.2023;02:30;02:45;23
01.01.2023;02:45;03:00;21
01.01.2023;03:00;03:15;21
01.01.2023;03:15;03:30;19
01.01.2023;03:30;03:45;19
01.01.2023;03:45;04:00;19
01.01.2023;04:00;04:15;18
01.01.2023;04:15;04:30;18
01.01.2023;04:30;04:45;18
01.01.2023;04:45;05:00;18
01.01.2023;05:00;05:15;18
01.01.2023;05:15;05:30;19
01.01.2023;05:30;05:45;20
01.01.2023;05:45;06:00;21
01.01.2023;06:00;06:15;16
01.01.2023;06:15;06:30;16
01.01.2023;06:30;06:45;16
01.01.2023;06:45;07:00;17
01.01.2023;07:00;07:15;16
01.01.2023;07:15;07:30;17
01.01.2023;07:30;07:45;17
01.01.2023;07:45;08:00;17
01.01.2023;08:00;08:15;19
01.01.2023;08:15;08:30;24
01.01.2023;08:30;08:45;22
01.01.2023;08:45;09:00;21
01.01.2023;09:00;09:15;22
01.01.2023;09:15;09:30;21
01.01.2023;09:30;09:45;21
01.01.2023;09:45;10:00;23
01.01.2023;10:00;10:15;23
01.01.2023;10:15;10:30;23
01.01.2023;10:30;10:45;23
01.01.2023;10:45;11:00;23
01.01.2023;11:00;11:15;22
01.01.2023;11:15;11:30;23
01.01.2023;11:30;11:45;23
01.01.2023;11:45;12:00;23
01.01.2023;12:00;12:15;23
01.01.2023;12:15;12:30;23
01.01.2023;12:30;12:45;22
01.01.2023;12:45;13:00;22
01.01.2023;13:00;13:15;19
01.01.2023;13:15;13:30;21
01.01.2023;13:30;13:45;16
01.01.2023;13:45;14:00;13
01.01.2023;14:00;14:15;13
01.01.2023;14:15;14:30;13
01.01.2023;14:30;14:45;15
01.01.2023;14:45;15:00;15
01.01.2023;15:00;15:15;14
01.01.2023;15:15;15:30;16
01.01.2023;15:30;15:45;17
01.01.2023;15:45;16:00;18
01.01.2023;16:00;16:15;20
01.01.2023;16:15;16:30;21
01.01.2023;16:30;16:45;21
01.01.2023;16:45;17:00;23
01.01.2023;17:00;17:15;27
01.01.2023;17:15;17:30;26
01.01.2023;17:30;17:45;26
01.01.2023;17:45;18:00;26
01.01.2023;18:00;18:15;29
01.01.2023;18:15;18:30;30
01.01.2023;18:30;18:45;32
01.01.2023;18:45;19:00;30
01.01.2023;19:00;19:15;29
01.01.2023;19:15;19:30;33
01.01.2023;19:30;19:45;34
01.01.2023;19:45;20:00;34
01.01.2023;20:00;20:15;32
01.01.2023;20:15;20:30;29
01.01.2023;20:30;20:45;29
01.01.2023;20:45;21:00;29
01.01.2023;21:00;21:15;27
01.01.2023;21:15;21:30;27
01.01.2023;21:30;21:45;27
01.01.2023;21:45;22:00;27
01.01.2023;22:00;22:15;27
01.01.2023;22:15;22:30;25
01.01.2023;22:30;22:45;25
01.01.2023;22:45;23:00;35
01.01.2023;23:00;23:15;44
01.01.2023;23:15;23:30;43
01.01.2023;23:30;23:45;42
02.01.2023;23:45;00:00;38
02.01.2023;00:00;00:15;34
02.01.2023;00:15;00:30;28
02.01.2023;00:30;00:45;26
02.01.2023;00:45;01:00;24
02.01.2023;01:00;01:15;24
02.01.2023;01:15;01:30;24
02.01.2023;01:30;01:45;23
02.01.2023;01:45;02:00;19
02.01.2023;02:00;02:15;20
02.01.2023;02:15;02:30;20,27400735
02.01.2023;02:30;02:45;20,6339645
02.01.2023;02:45;03:00;20,11878613
02.01.2023;03:00;03:15;20,20086566
02.01.2023;03:15;03:30;19
02.01.2023;03:30;03:45;18
02.01.2023;03:45;04:00;18
02.01.2023;04:00;04:15;18
02.01.2023;04:15;04:30;18
02.01.2023;04:30;04:45;19
02.01.2023;04:45;05:00;16
02.01.2023;05:00;05:15;16
02.01.2023;05:15;05:30;16
02.01.2023;05:30;05:45;18
02.01.2023;05:45;06:00;20
02.01.2023;06:00;06:15;23
02.01.2023;06:15;06:30;22
02.01.2023;06:30;06:45;22
02.01.2023;06:45;07:00;23
02.01.2023;07:00;07:15;24
02.01.2023;07:15;07:30;25
02.01.2023;07:30;07:45;23
02.01.2023;07:45;08:00;25
02.01.2023;08:00;08:15;25
02.01.2023;08:15;08:30;33
02.01.2023;08:30;08:45;33
02.01.2023;08:45;09:00;33
02.01.2023;09:00;09:15;33
02.01.2023;09:15;09:30;35
02.01.2023;09:30;09:45;35
02.01.2023;09:45;10:00;36
02.01.2023;10:00;10:15;40
02.01.2023;10:15;10:30;43
02.01.2023;10:30;10:45;42
02.01.2023;10:45;11:00;42
02.01.2023;11:00;11:15;42
02.01.2023;11:15;11:30;41
02.01.2023;11:30;11:45;43
02.01.2023;11:45;12:00;41
02.01.2023;12:00;12:15;41
02.01.2023;12:15;12:30;39
02.01.2023;12:30;12:45;38
02.01.2023;12:45;13:00;37
02.01.2023;13:00;13:15;31
02.01.2023;13:15;13:30;34
02.01.2023;13:30;13:45;30
02.01.2023;13:45;14:00;28
02.01.2023;14:00;14:15;27
02.01.2023;14:15;14:30;27
02.01.2023;14:30;14:45;26
02.01.2023;14:45;15:00;27
02.01.2023;15:00;15:15;32
02.01.2023;15:15;15:30;28
02.01.2023;15:30;15:45;29
02.01.2023;15:45;16:00;29
02.01.2023;16:00;16:15;32
02.01.2023;16:15;16:30;33
02.01.2023;16:30;16:45;33
02.01.2023;16:45;17:00;36
02.01.2023;17:00;17:15;36
02.01.2023;17:15;17:30;36
02.01.2023;17:30;17:45;38
02.01.2023;17:45;18:00;38
02.01.2023;18:00;18:15;41
02.01.2023;18:15;18:30;39
02.01.2023;18:30;18:45;40
02.01.2023;18:45;19:00;39
02.01.2023;19:00;19:15;38
02.01.2023;19:15;19:30;37
02.01.2023;19:30;19:45;37
02.01.2023;19:45;20:00;38
02.01.2023;20:00;20:15;38
02.01.2023;20:15;20:30;37
02.01.2023;20:30;20:45;36
02.01.2023;20:45;21:00;34
02.01.2023;21:00;21:15;33
02.01.2023;21:15;21:30;30
02.01.2023;21:30;21:45;31
02.01.2023;21:45;22:00;28
02.01.2023;22:00;22:15;28
02.01.2023;22:15;22:30;27
02.01.2023;22:30;22:45;24
02.01.2023;22:45;23:00;35
02.01.2023;23:00;23:15;40
02.01.2023;23:15;23:30;40
02.01.2023;23:30;23:45;38
03.01.2023;23:45;00:00;36
03.01.2023;00:00;00:15;29
03.01.2023;00:15;00:30;27
03.01.2023;00:30;00:45;24
03.01.2023;00:45;01:00;23
03.01.2023;01:00;01:15;21
03.01.2023;01:15;01:30;20
03.01.2023;01:30;01:45;19
03.01.2023;01:45;02:00;17
03.01.2023;02:00;02:15;18
03.01.2023;02:15;02:30;19
03.01.2023;02:30;02:45;18
03.01.2023;02:45;03:00;18
03.01.2023;03:00;03:15;19
03.01.2023;03:15;03:30;20
03.01.2023;03:30;03:45;18
03.01.2023;03:45;04:00;18
03.01.2023;04:00;04:15;19
03.01.2023;04:15;04:30;20
03.01.2023;04:30;04:45;20
03.01.2023;04:45;05:00;17
03.01.2023;05:00;05:15;16
03.01.2023;05:15;05:30;18
03.01.2023;05:30;05:45;25
03.01.2023;05:45;06:00;26
03.01.2023;06:00;06:15;22
03.01.2023;06:15;06:30;22
03.01.2023;06:30;06:45;22
03.01.2023;06:45;07:00;23
03.01.2023;07:00;07:15;24
03.01.2023;07:15;07:30;24
03.01.2023;07:30;07:45;25
03.01.2023;07:45;08:00;27
03.01.2023;08:00;08:15;25
03.01.2023;08:15;08:30;27
03.01.2023;08:30;08:45;27
03.01.2023;08:45;09:00;30
03.01.2023;09:00;09:15;37
03.01.2023;09:15;09:30;37
03.01.2023;09:30;09:45;37
03.01.2023;09:45;10:00;39
03.01.2023;10:00;10:15;42
03.01.2023;10:15;10:30;42
03.01.2023;10:30;10:45;41
03.01.2023;10:45;11:00;39
03.01.2023;11:00;11:15;39
03.01.2023;11:15;11:30;37
03.01.2023;11:30;11:45;44
03.01.2023;11:45;12:00;48
03.01.2023;12:00;12:15;44
03.01.2023;12:15;12:30;41
03.01.2023;12:30;12:45;41
03.01.2023;12:45;13:00;40
03.01.2023;13:00;13:15;38
03.01.2023;13:15;13:30;40
03.01.2023;13:30;13:45;38
03.01.2023;13:45;14:00;39
03.01.2023;14:00;14:15;35
03.01.2023;14:15;14:30;27
03.01.2023;14:30;14:45;29
03.01.2023;14:45;15:00;37
03.01.2023;15:00;15:15;37
03.01.2023;15:15;15:30;33
03.01.2023;15:30;15:45;32
03.01.2023;15:45;16:00;34
03.01.2023;16:00;16:15;35
03.01.2023;16:15;16:30;37
03.01.2023;16:30;16:45;36
03.01.2023;16:45;17:00;37
03.01.2023;17:00;17:15;39
03.01.2023;17:15;17:30;44
03.01.2023;17:30;17:45;41
03.01.2023;17:45;18:00;43
03.01.2023;18:00;18:15;47
03.01.2023;18:15;18:30;43
03.01.2023;18:30;18:45;42
03.01.2023;18:45;19:00;42
03.01.2023;19:00;19:15;36
03.01.2023;19:15;19:30;37
03.01.2023;19:30;19:45;37
03.01.2023;19:45;20:00;39
03.01.2023;20:00;20:15;38
03.01.2023;20:15;20:30;33
03.01.2023;20:30;20:45;30
03.01.2023;20:45;21:00;32
03.01.2023;21:00;21:15;27
03.01.2023;21:15;21:30;26
03.01.2023;21:30;21:45;23
03.01.2023;21:45;22:00;22
03.01.2023;22:00;22:15;26
03.01.2023;22:15;22:30;26
03.01.2023;22:30;22:45;26
03.01.2023;22:45;23:00;37
03.01.2023;23:00;23:15;44
03.01.2023;23:15;23:30;44
03.01.2023;23:30;23:45;42
04.01.2023;23:45;00:00;42
04.01.2023;00:00;00:15;41
04.01.2023;00:15;00:30;37
04.01.2023;00:30;00:45;35
04.01.2023;00:45;01:00;32
04.01.2023;01:00;01:15;31
04.01.2023;01:15;01:30;30
04.01.2023;01:30;01:45;32
04.01.2023;01:45;02:00;30
04.01.2023;02:00;02:15;30
04.01.2023;02:15;02:30;25
04.01.2023;02:30;02:45;23
04.01.2023;02:45;03:00;20
04.01.2023;03:00;03:15;19
04.01.2023;03:15;03:30;19
04.01.2023;03:30;03:45;20
04.01.2023;03:45;04:00;18
04.01.2023;04:00;04:15;20
04.01.2023;04:15;04:30;19
04.01.2023;04:30;04:45;22
04.01.2023;04:45;05:00;16
04.01.2023;05:00;05:15;17
04.01.2023;05:15;05:30;17
04.01.2023;05:30;05:45;21
04.01.2023;05:45;06:00;23
04.01.2023;06:00;06:15;22
04.01.2023;06:15;06:30;22
04.01.2023;06:30;06:45;23
04.01.2023;06:45;07:00;24
04.01.2023;07:00;07:15;24
04.01.2023;07:15;07:30;24
04.01.2023;07:30;07:45;28
04.01.2023;07:45;08:00;27
04.01.2023;08:00;08:15;27
04.01.2023;08:15;08:30;28
04.01.2023;08:30;08:45;28
04.01.2023;08:45;09:00;28
04.01.2023;09:00;09:15;32
04.01.2023;09:15;09:30;31
04.01.2023;09:30;09:45;41
04.01.2023;09:45;10:00;42
04.01.2023;10:00;10:15;46
04.01.2023;10:15;10:30;49
04.01.2023;10:30;10:45;44
04.01.2023;10:45;11:00;45
04.01.2023;11:00;11:15;44
04.01.2023;11:15;11:30;49
04.01.2023;11:30;11:45;54
04.01.2023;11:45;12:00;52
04.01.2023;12:00;12:15;56
04.01.2023;12:15;12:30;49
04.01.2023;12:30;12:45;45
04.01.2023;12:45;13:00;45
04.01.2023;13:00;13:15;38
04.01.2023;13:15;13:30;37
04.01.2023;13:30;13:45;38
04.01.2023;13:45;14:00;43
04.01.2023;14:00;14:15;41
04.01.2023;14:15;14:30;40
04.01.2023;14:30;14:45;40
04.01.2023;14:45;15:00;39
04.01.2023;15:00;15:15;41
04.01.2023;15:15;15:30;39
04.01.2023;15:30;15:45;38
04.01.2023;15:45;16:00;39
04.01.2023;16:00;16:15;39
04.01.2023;16:15;16:30;41
04.01.2023;16:30;16:45;43
04.01.2023;16:45;17:00;46
04.01.2023;17:00;17:15;45
04.01.2023;17:15;17:30;45
04.01.2023;17:30;17:45;43
04.01.2023;17:45;18:00;44
04.01.2023;18:00;18:15;42
04.01.2023;18:15;18:30;43
04.01.2023;18:30;18:45;42
04.01.2023;18:45;19:00;39
04.01.2023;19:00;19:15;37
04.01.2023;19:15;19:30;36
04.01.2023;19:30;19:45;34
04.01.2023;19:45;20:00;38
04.01.2023;20:00;20:15;39
04.01.2023;20:15;20:30;34
04.01.2023;20:30;20:45;34
04.01.2023;20:45;21:00;32
04.01.2023;21:00;21:15;28
04.01.2023;21:15;21:30;25
04.01.2023;21:30;21:45;23
04.01.2023;21:45;22:00;24
04.01.2023;22:00;22:15;27
04.01.2023;22:15;22:30;26
04.01.2023;22:30;22:45;24
04.01.2023;22:45;23:00;35
04.01.2023;23:00;23:15;42
04.01.2023;23:15;23:30;36
04.01.2023;23:30;23:45;38
05.01.2023;23:45;00:00;36
05.01.2023;00:00;00:15;37
05.01.2023;00:15;00:30;34
05.01.2023;00:30;00:45;31
05.01.2023;00:45;01:00;30
05.01.2023;01:00;01:15;28
05.01.2023;01:15;01:30;22
05.01.2023;01:30;01:45;20
05.01.2023;01:45;02:00;19
05.01.2023;02:00;02:15;20
05.01.2023;02:15;02:30;20
05.01.2023;02:30;02:45;20
05.01.2023;02:45;03:00;19
05.01.2023;03:00;03:15;18
05.01.2023;03:15;03:30;19
05.01.2023;03:30;03:45;19
05.01.2023;03:45;04:00;19
05.01.2023;04:00;04:15;20
05.01.2023;04:15;04:30;19
05.01.2023;04:30;04:45;20
05.01.2023;04:45;05:00;17
05.01.2023;05:00;05:15;16
05.01.2023;05:15;05:30;16
05.01.2023;05:30;05:45;20
05.01.2023;05:45;06:00;20
05.01.2023;06:00;06:15;22
05.01.2023;06:15;06:30;21
05.01.2023;06:30;06:45;22
05.01.2023;06:45;07:00;23
05.01.2023;07:00;07:15;25
05.01.2023;07:15;07:30;26
05.01.2023;07:30;07:45;26
05.01.2023;07:45;08:00;24
05.01.2023;08:00;08:15;24
05.01.2023;08:15;08:30;27
05.01.2023;08:30;08:45;28
05.01.2023;08:45;09:00;31
05.01.2023;09:00;09:15;32
05.01.2023;09:15;09:30;30
05.01.2023;09:30;09:45;31
05.01.2023;09:45;10:00;41
05.01.2023;10:00;10:15;40
05.01.2023;10:15;10:30;41
05.01.2023;10:30;10:45;42
05.01.2023;10:45;11:00;40
05.01.2023;11:00;11:15;44
05.01.2023;11:15;11:30;43
05.01.2023;11:30;11:45;42
05.01.2023;11:45;12:00;45
05.01.2023;12:00;12:15;43
05.01.2023;12:15;12:30;40
05.01.2023;12:30;12:45;42
05.01.2023;12:45;13:00;41
05.01.2023;13:00;13:15;38
05.01.2023;13:15;13:30;37
05.01.2023;13:30;13:45;37
05.01.2023;13:45;14:00;37
05.01.2023;14:00;14:15;37
05.01.2023;14:15;14:30;37
05.01.2023;14:30;14:45;40
05.01.2023;14:45;15:00;40
05.01.2023;15:00;15:15;38
05.01.2023;15:15;15:30;39
05.01.2023;15:30;15:45;39
05.01.2023;15:45;16:00;41
05.01.2023;16:00;16:15;40
05.01.2023;16:15;16:30;42
05.01.2023;16:30;16:45;42
05.01.2023;16:45;17:00;44
05.01.2023;17:00;17:15;48
05.01.2023;17:15;17:30;40
05.01.2023;17:30;17:45;43
05.01.2023;17:45;18:00;41
05.01.2023;18:00;18:15;40
05.01.2023;18:15;18:30;43
05.01.2023;18:30;18:45;47
05.01.2023;18:45;19:00;45
05.01.2023;19:00;19:15;43
05.01.2023;19:15;19:30;40
05.01.2023;19:30;19:45;38
05.01.2023;19:45;20:00;33
05.01.2023;20:00;20:15;32
05.01.2023;20:15;20:30;31
05.01.2023;20:30;20:45;30
05.01.2023;20:45;21:00;28
05.01.2023;21:00;21:15;29
05.01.2023;21:15;21:30;25
05.01.2023;21:30;21:45;23
05.01.2023;21:45;22:00;23
05.01.2023;22:00;22:15;23
05.01.2023;22:15;22:30;20
05.01.2023;22:30;22:45;20
05.01.2023;22:45;23:00;23
05.01.2023;23:00;23:15;23
05.01.2023;23:15;23:30;23
05.01.2023;23:30;23:45;22
06.01.2023;23:45;00:00;33
06.01.2023;00:00;00:15;45
06.01.2023;00:15;00:30;41
06.01.2023;00:30;00:45;41
06.01.2023;00:45;01:00;40
06.01.2023;01:00;01:15;38
06.01.2023;01:15;01:30;39
06.01.2023;01:30;01:45;35
06.01.2023;01:45;02:00;33
06.01.2023;02:00;02:15;31
06.01.2023;02:15;02:30;30
06.01.2023;02:30;02:45;31
06.01.2023;02:45;03:00;26
06.01.2023;03:00;03:15;23
06.01.2023;03:15;03:30;24
06.01.2023;03:30;03:45;22
06.01.2023;03:45;04:00;22
06.01.2023;04:00;04:15;20
06.01.2023;04:15;04:30;20
06.01.2023;04:30;04:45;21
06.01.2023;04:45;05:00;20
06.01.2023;05:00;05:15;20
06.01.2023;05:15;05:30;20
06.01.2023;05:30;05:45;23
06.01.2023;05:45;06:00;20
06.01.2023;06:00;06:15;19
06.01.2023;06:15;06:30;18
06.01.2023;06:30;06:45;19
06.01.2023;06:45;07:00;19
06.01.2023;07:00;07:15;19
06.01.2023;07:15;07:30;20
06.01.2023;07:30;07:45;20
06.01.2023;07:45;08:00;20
06.01.2023;08:00;08:15;22
06.01.2023;08:15;08:30;23
06.01.2023;08:30;08:45;23
06.01.2023;08:45;09:00;24
06.01.2023;09:00;09:15;27
06.01.2023;09:15;09:30;27
06.01.2023;09:30;09:45;27
06.01.2023;09:45;10:00;29
06.01.2023;10:00;10:15;29
06.01.2023;10:15;10:30;30
06.01.2023;10:30;10:45;29
06.01.2023;10:45;11:00;32
06.01.2023;11:00;11:15;27
06.01.2023;11:15;11:30;27
06.01.2023;11:30;11:45;34
06.01.2023;11:45;12:00;36
06.01.2023;12:00;12:15;41
06.01.2023;12:15;12:30;43
06.01.2023;12:30;12:45;45
06.01.2023;12:45;13:00;41
06.01.2023;13:00;13:15;38
06.01.2023;13:15;13:30;40
06.01.2023;13:30;13:45;40
06.01.2023;13:45;14:00;39
06.01.2023;14:00;14:15;35
06.01.2023;14:15;14:30;36
06.01.2023;14:30;14:45;34
06.01.2023;14:45;15:00;35
06.01.2023;15:00;15:15;35
06.01.2023;15:15;15:30;33
06.01.2023;15:30;15:45;35
06.01.2023;15:45;16:00;37
06.01.2023;16:00;16:15;36
06.01.2023;16:15;16:30;37
06.01.2023;16:30;16:45;41
06.01.2023;16:45;17:00;44
06.01.2023;17:00;17:15;47
06.01.2023;17:15;17:30;50
06.01.2023;17:30;17:45;48
06.01.2023;17:45;18:00;45
06.01.2023;18:00;18:15;42
06.01.2023;18:15;18:30;42
06.01.2023;18:30;18:45;45
06.01.2023;18:45;19:00;45
06.01.2023;19:00;19:15;41
06.01.2023;19:15;19:30;41
06.01.2023;19:30;19:45;39
06.01.2023;19:45;20:00;40
06.01.2023;20:00;20:15;33
06.01.2023;20:15;20:30;31
06.01.2023;20:30;20:45;28
06.01.2023;20:45;21:00;27
06.01.2023;21:00;21:15;24
06.01.2023;21:15;21:30;23
06.01.2023;21:30;21:45;23
06.01.2023;21:45;22:00;22
06.01.2023;22:00;22:15;21
06.01.2023;22:15;22:30;19
06.01.2023;22:30;22:45;19
06.01.2023;22:45;23:00;27
06.01.2023;23:00;23:15;32
06.01.2023;23:15;23:30;32
06.01.2023;23:30;23:45;30
07.01.2023;23:45;00:00;28
07.01.2023;00:00;00:15;28
07.01.2023;00:15;00:30;27
07.01.2023;00:30;00:45;26
07.01.2023;00:45;01:00;24
07.01.2023;01:00;01:15;22
07.01.2023;01:15;01:30;21
07.01.2023;01:30;01:45;20
07.01.2023;01:45;02:00;18
07.01.2023;02:00;02:15;18
07.01.2023;02:15;02:30;18
07.01.2023;02:30;02:45;18
07.01.2023;02:45;03:00;17
07.01.2023;03:00;03:15;18
07.01.2023;03:15;03:30;18
07.01.2023;03:30;03:45;19
07.01.2023;03:45;04:00;19
07.01.2023;04:00;04:15;21
07.01.2023;04:15;04:30;21
07.01.2023;04:30;04:45;21
07.01.2023;04:45;05:00;18
07.01.2023;05:00;05:15;16
07.01.2023;05:15;05:30;17
07.01.2023;05:30;05:45;19
07.01.2023;05:45;06:00;21
07.01.2023;06:00;06:15;22
07.01.2023;06:15;06:30;23
07.01.2023;06:30;06:45;21
07.01.2023;06:45;07:00;21
07.01.2023;07:00;07:15;22
07.01.2023;07:15;07:30;24
07.01.2023;07:30;07:45;23
07.01.2023;07:45;08:00;23
07.01.2023;08:00;08:15;23
07.01.2023;08:15;08:30;26
07.01.2023;08:30;08:45;27
07.01.2023;08:45;09:00;29
07.01.2023;09:00;09:15;29
07.01.2023;09:15;09:30;29
07.01.2023;09:30;09:45;38
07.01.2023;09:45;10:00;43
07.01.2023;10:00;10:15;46
07.01.2023;10:15;10:30;41
07.01.2023;10:30;10:45;44
07.01.2023;10:45;11:00;43
07.01.2023;11:00;11:15;48
07.01.2023;11:15;11:30;46
07.01.2023;11:30;11:45;49
07.01.2023;11:45;12:00;52
07.01.2023;12:00;12:15;52
07.01.2023;12:15;12:30;53
07.01.2023;12:30;12:45;50
07.01.2023;12:45;13:00;49
07.01.2023;13:00;13:15;44
07.01.2023;13:15;13:30;37
07.01.2023;13:30;13:45;28
07.01.2023;13:45;14:00;27
07.01.2023;14:00;14:15;30
07.01.2023;14:15;14:30;27
07.01.2023;14:30;14:45;26
07.01.2023;14:45;15:00;28
07.01.2023;15:00;15:15;29
07.01.2023;15:15;15:30;31
07.01.2023;15:30;15:45;30
07.01.2023;15:45;16:00;30
07.01.2023;16:00;16:15;34
07.01.2023;16:15;16:30;36
07.01.2023;16:30;16:45;40
07.01.2023;16:45;17:00;46
07.01.2023;17:00;17:15;46
07.01.2023;17:15;17:30;48
07.01.2023;17:30;17:45;46
07.01.2023;17:45;18:00;45
07.01.2023;18:00;18:15;42
07.01.2023;18:15;18:30;40
07.01.2023;18:30;18:45;39
07.01.2023;18:45;19:00;44
07.01.2023;19:00;19:15;38
07.01.2023;19:15;19:30;39
07.01.2023;19:30;19:45;36
07.01.2023;19:45;20:00;33
07.01.2023;20:00;20:15;34
07.01.2023;20:15;20:30;29
07.01.2023;20:30;20:45;27
07.01.2023;20:45;21:00;30
07.01.2023;21:00;21:15;30
07.01.2023;21:15;21:30;28
07.01.2023;21:30;21:45;25
07.01.2023;21:45;22:00;24
07.01.2023;22:00;22:15;23
07.01.2023;22:15;22:30;22
07.01.2023;22:30;22:45;22
07.01.2023;22:45;23:00;22
07.01.2023;23:00;23:15;25
07.01.2023;23:15;23:30;24
07.01.2023;23:30;23:45;23
08.01.2023;23:45;00:00;34
08.01.2023;00:00;00:15;44
08.01.2023;00:15;00:30;45
08.01.2023;00:30;00:45;46
08.01.2023;00:45;01:00;43
08.01.2023;01:00;01:15;40
08.01.2023;01:15;01:30;40
08.01.2023;01:30;01:45;36
08.01.2023;01:45;02:00;37
08.01.2023;02:00;02:15;33
08.01.2023;02:15;02:30;30
08.01.2023;02:30;02:45;29
08.01.2023;02:45;03:00;28
08.01.2023;03:00;03:15;26
08.01.2023;03:15;03:30;26
08.01.2023;03:30;03:45;24
08.01.2023;03:45;04:00;23
08.01.2023;04:00;04:15;20
08.01.2023;04:15;04:30;19
08.01.2023;04:30;04:45;19
08.01.2023;04:45;05:00;19
08.01.2023;05:00;05:15;20
08.01.2023;05:15;05:30;22
08.01.2023;05:30;05:45;22
08.01.2023;05:45;06:00;19
08.01.2023;06:00;06:15;18
08.01.2023;06:15;06:30;18
08.01.2023;06:30;06:45;19
08.01.2023;06:45;07:00;20
08.01.2023;07:00;07:15;19
08.01.2023;07:15;07:30;20
08.01.2023;07:30;07:45;22
08.01.2023;07:45;08:00;22
08.01.2023;08:00;08:15;24
08.01.2023;08:15;08:30;26
08.01.2023;08:30;08:45;25
08.01.2023;08:45;09:00;33
08.01.2023;09:00;09:15;35
08.01.2023;09:15;09:30;35
08.01.2023;09:30;09:45;38
08.01.2023;09:45;10:00;38
08.01.2023;10:00;10:15;39
08.01.2023;10:15;10:30;41
08.01.2023;10:30;10:45;38
08.01.2023;10:45;11:00;38
08.01.2023;11:00;11:15;41
08.01.2023;11:15;11:30;46
08.01.2023;11:30;11:45;49
08.01.2023;11:45;12:00;52
08.01.2023;12:00;12:15;50
08.01.2023;12:15;12:30;50
08.01.2023;12:30;12:45;50
08.01.2023;12:45;13:00;45
08.01.2023;13:00;13:15;44
08.01.2023;13:15;13:30;43
08.01.2023;13:30;13:45;39
08.01.2023;13:45;14:00;38
08.01.2023;14:00;14:15;40
08.01.2023;14:15;14:30;41
08.01.2023;14:30;14:45;38
08.01.2023;14:45;15:00;29
08.01.2023;15:00;15:15;31
08.01.2023;15:15;15:30;29
08.01.2023;15:30;15:45;28
08.01.2023;15:45;16:00;30
08.01.2023;16:00;16:15;33
08.01.2023;16:15;16:30;33
08.01.2023;16:30;16:45;35
08.01.2023;16:45;17:00;35
08.01.2023;17:00;17:15;36
08.01.2023;17:15;17:30;38
08.01.2023;17:30;17:45;38
08.01.2023;17:45;18:00;38
08.01.2023;18:00;18:15;39
08.01.2023;18:15;18:30;43
08.01.2023;18:30;18:45;39
08.01.2023;18:45;19:00;39
08.01.2023;19:00;19:15;37
08.01.2023;19:15;19:30;33
08.01.2023;19:30;19:45;36
08.01.2023;19:45;20:00;43
08.01.2023;20:00;20:15;42
08.01.2023;20:15;20:30;37
08.01.2023;20:30;20:45;37
08.01.2023;20:45;21:00;35
08.01.2023;21:00;21:15;34
08.01.2023;21:15;21:30;33
08.01.2023;21:30;21:45;32
08.01.2023;21:45;22:00;30
08.01.2023;22:00;22:15;27
08.01.2023;22:15;22:30;25
08.01.2023;22:30;22:45;24
08.01.2023;22:45;23:00;34
08.01.2023;23:00;23:15;32
08.01.2023;23:15;23:30;30
08.01.2023;23:30;23:45;28
09.01.2023;23:45;00:00;27
09.01.2023;00:00;00:15;26
09.01.2023;00:15;00:30;26
09.01.2023;00:30;00:45;25
09.01.2023;00:45;01:00;25
09.01.2023;01:00;01:15;21
09.01.2023;01:15;01:30;19
09.01.2023;01:30;01:45;19
09.01.2023;01:45;02:00;19
09.01.2023;02:00;02:15;19
09.01.2023;02:15;02:30;20
09.01.2023;02:30;02:45;21
09.01.2023;02:45;03:00;21
09.01.2023;03:00;03:15;20
09.01.2023;03:15;03:30;20
09.01.2023;03:30;03:45;19
09.01.2023;03:45;04:00;21
09.01.2023;04:00;04:15;21
09.01.2023;04:15;04:30;22
09.01.2023;04:30;04:45;23
09.01.2023;04:45;05:00;22
09.01.2023;05:00;05:15;21
09.01.2023;05:15;05:30;22
09.01.2023;05:30;05:45;28
09.01.2023;05:45;06:00;29
09.01.2023;06:00;06:15;28
09.01.2023;06:15;06:30;29
09.01.2023;06:30;06:45;30
09.01.2023;06:45;07:00;30
09.01.2023;07:00;07:15;32
09.01.2023;07:15;07:30;33
09.01.2023;07:30;07:45;37
09.01.2023;07:45;08:00;40
09.01.2023;08:00;08:15;40
09.01.2023;08:15;08:30;41
09.01.2023;08:30;08:45;35
09.01.2023;08:45;09:00;37
09.01.2023;09:00;09:15;38
09.01.2023;09:15;09:30;41
09.01.2023;09:30;09:45;47
09.01.2023;09:45;10:00;50
09.01.2023;10:00;10:15;51
09.01.2023;10:15;10:30;50
09.01.2023;10:30;10:45;52
09.01.2023;10:45;11:00;48
09.01.2023;11:00;11:15;46
09.01.2023;11:15;11:30;50
09.01.2023;11:30;11:45;55
09.01.2023;11:45;12:00;50
09.01.2023;12:00;12:15;45
09.01.2023;12:15;12:30;46
09.01.2023;12:30;12:45;51
09.01.2023;12:45;13:00;51
09.01.2023;13:00;13:15;43
09.01.2023;13:15;13:30;39
09.01.2023;13:30;13:45;43
09.01.2023;13:45;14:00;40
09.01.2023;14:00;14:15;42
09.01.2023;14:15;14:30;40
09.01.2023;14:30;14:45;40
09.01.2023;14:45;15:00;42
09.01.2023;15:00;15:15;42
09.01.2023;15:15;15:30;43
09.01.2023;15:30;15:45;40
09.01.2023;15:45;16:00;40
09.01.2023;16:00;16:15;38
09.01.2023;16:15;16:30;36
09.01.2023;16:30;16:45;39
09.01.2023;16:45;17:00;40
09.01.2023;17:00;17:15;44
09.01.2023;17:15;17:30;45
09.01.2023;17:30;17:45;44
09.01.2023;17:45;18:00;43
09.01.2023;18:00;18:15;42
09.01.2023;18:15;18:30;43
09.01.2023;18:30;18:45;40
09.01.2023;18:45;19:00;40
09.01.2023;19:00;19:15;41
09.01.2023;19:15;19:30;38
09.01.2023;19:30;19:45;37
09.01.2023;19:45;20:00;39
09.01.2023;20:00;20:15;41
09.01.2023;20:15;20:30;34
09.01.2023;20:30;20:45;32
09.01.2023;20:45;21:00;33
09.01.2023;21:00;21:15;30
09.01.2023;21:15;21:30;27
09.01.2023;21:30;21:45;26
09.01.2023;21:45;22:00;26
09.01.2023;22:00;22:15;29
09.01.2023;22:15;22:30;28
09.01.2023;22:30;22:45;27
09.01.2023;22:45;23:00;38
09.01.2023;23:00;23:15;45
09.01.2023;23:15;23:30;42
09.01.2023;23:30;23:45;43
10.01.2023;23:45;00:00;41
10.01.2023;00:00;00:15;41
10.01.2023;00:15;00:30;39
10.01.2023;00:30;00:45;37
10.01.2023;00:45;01:00;36
10.01.2023;01:00;01:15;31
10.01.2023;01:15;01:30;28
10.01.2023;01:30;01:45;27
10.01.2023;01:45;02:00;26
10.01.2023;02:00;02:15;26
10.01.2023;02:15;02:30;27
10.01.2023;02:30;02:45;26
10.01.2023;02:45;03:00;25
10.01.2023;03:00;03:15;22